Location: Brede
(50.9167°N, 0.6000°E)
Time: 01:04:03
(UTC+00:00)

DELTA 2 DEB (DPAF) - Pass Details

Date: 08 August 2020
Orbit: 642 x 645 km, 98.3° (Epoch: 19 September)

Event Time Altitude Azimuth Distance (km) Brightness Sun altitude
Exits shadow 01:25:26 50° 173° (S) 823 4.3 -20.7°
Maximum altitude 01:26:35 83° 255° (WSW) 655 4.0 -20.6°
Drops below altitude 10° 01:31:04 10° 344° (NNW) 2,051 7.4 -20.3°
Sets 01:33:17 0° 345° (NNW) 2,965 8.4 -20.2°
